Location: Caltech
(34.1382°N, 118.1253°W)
Time: 00:56:47
(UTC-07:00)

Cosmos 2084 - Visible Passes

Search period start: 01 September 2015 00:00
Search period end: 11 September 2015 00:00
Orbit: 533 x 659 km, 62.8° (Epoch: 31 August)

Date Brightness Start Highest point End Pass type
(mag) Time Alt. Az. Time Alt. Az. Time Alt. Az.
01 Sep 4.8 05:01:55 10° NNW 05:06:10 43° NE 05:10:34 10° SE visible
01 Sep 5.1 20:43:30 10° WSW 20:47:07 32° NW 20:50:48 10° NNE visible
02 Sep 3.6 05:11:32 10° NNW 05:16:00 83° ENE 05:20:36 10° SSE visible
02 Sep 6.2 20:54:16 10° W 20:57:07 18° NW 20:59:55 10° N visible
03 Sep 6.4 03:43:00 10° N 03:45:51 17° NE 03:48:52 10° E visible
03 Sep 3.7 05:21:24 10° NW 05:25:45 51° WSW 05:30:12 10° SSE visible
03 Sep 6.8 21:06:32 10° NW 21:07:15 10° NW 21:07:46 10° NW visible
04 Sep 5.5 03:52:01 10° N 03:55:52 29° NE 03:59:53 10° ESE visible
04 Sep 4.5 05:31:38 10° WNW 05:35:27 26° WSW 05:39:15 10° S visible
04 Sep 4.2 19:32:58 10° SW 19:36:51 52° NW 19:40:50 10° NNE visible
05 Sep 4.5 04:06:38 45° E 04:06:38 45° E 04:10:16 10° SE visible
05 Sep 5.2 05:43:43 13° W 05:45:06 14° WSW 05:47:20 10° SW visible
05 Sep 5.6 19:43:18 10° WSW 19:46:46 27° NW 19:50:14 10° N visible
06 Sep 6.3 19:54:18 10° W 19:56:47 15° NW 19:59:11 10° N visible
